N7LK Weather Reports


Display with metric or nautical units.
time (UTC)temp
F
wind
direction
speed
MPH
gust
MPH
rain 1hr
in
rain 24hr
in
rain mn
in
humidity
%
barometer
mb
20260902023338 96 285 0.0 0.0 0.00 0.00 0.00 35 1008.6
20260902022349 97 285 0.0 0.0 0.00 0.00 0.00 36 1008.6
20260902021334 97 285 0.0 1.0 0.00 0.00 0.00 35 1008.6
20260902020341 98 285 0.0 2.0 0.00 0.00 0.00 34 1008.6
20260902015329 98 323 0.0 3.0 0.00 0.00 0.00 33 1008.3
20260902014338 99 300 1.0 3.0 0.00 0.00 0.00 33 1008.3
20260902013341 100 153 2.0 5.0 0.00 0.00 0.00 31 1008.3
20260902012329 100 186 1.0 3.0 0.00 0.00 0.00 31 1008.3
20260902011357 101 283 1.0 3.0 0.00 0.00 0.00 31 1008.3
20260902010327 101 360 0.0 4.0 0.00 0.00 0.00 30 1008.4
20260902005336 101 207 2.0 5.0 0.00 0.00 0.00 30 1008.6
20260902004343 101 156 3.0 5.0 0.00 0.00 0.00 30 1008.7
20260902003330 101 51 2.0 5.0 0.00 0.00 0.00 29 1008.7
20260902002342 102 293 2.0 7.0 0.00 0.00 0.00 30 1008.9
20260902001349 102 263 1.0 4.0 0.00 0.00 0.00 28 1008.9
20260902000334 102 284 3.0 6.0 0.00 0.00 0.00 29 1008.9
20260901235341 102 267 2.0 4.0 0.00 0.00 0.00 31 1008.9
20260901234348 101 88 0.0 4.0 0.00 0.00 0.00 32 1009.0
20260901233338 101 266 2.0 4.0 0.00 0.00 0.00 31 1009.2
20260901232344 101 240 3.0 7.0 0.00 0.00 0.00 32 1009.3
20260901231331 101 213 4.0 8.0 0.00 0.00 0.00 31 1009.4
20260901230338 101 259 1.0 7.0 0.00 0.00 0.00 32 1009.5
20260901225330 101 192 3.0 12.0 0.00 0.00 0.00 32 1009.6
20260901224337 101 195 2.0 6.0 0.00 0.00 0.00 33 1009.6
20260901223343 101 144 4.0 6.0 0.00 0.00 0.00 33 1009.7
20260901222329 100 175 3.0 8.0 0.00 0.00 0.00 32 1009.8
20260901221400 101 157 5.0 9.0 0.00 0.00 0.00 33 1009.9
20260901220346 101 244 3.0 7.0 0.00 0.00 0.00 33 1010.0
20260901215330 100 229 6.0 8.0 0.00 0.00 0.00 34 1010.2
20260901214337 100 163 4.0 10.0 0.00 0.00 0.00 35 1010.3
20260901213343 100 243 3.0 9.0 0.00 0.00 0.00 34 1010.4
20260901212333 99 192 5.0 10.0 0.00 0.00 0.00 36 1010.7
20260901211340 98 197 4.0 9.0 0.00 0.00 0.00 37 1010.8
20260901210327 98 78 2.0 5.0 0.00 0.00 0.00 38 1011.1
20260901205334 98 226 4.0 10.0 0.00 0.00 0.00 37 1011.2
20260901204345 98 245 3.0 8.0 0.00 0.00 0.00 38 1011.4
20260901203331 97 269 4.0 7.0 0.00 0.00 0.00 38 1011.5
20260901202339 97 147 2.0 8.0 0.00 0.00 0.00 39 1011.6
20260901201403 97 95 4.0 9.0 0.00 0.00 0.00 39 1011.8
20260901200333 97 97 2.0 6.0 0.00 0.00 0.00 39 1011.9
20260901195400 97 320 3.0 6.0 0.00 0.00 0.00 39 1012.0
20260901194347 97 229 5.0 11.0 0.00 0.00 0.00 40 1012.2
20260901193331 97 121 3.0 8.0 0.00 0.00 0.00 40 1012.3
20260901192340 96 284 1.0 5.0 0.00 0.00 0.00 39 1012.4
20260901191346 96 225 2.0 4.0 0.00 0.00 0.00 40 1012.6
20260901190333 95 182 4.0 6.0 0.00 0.00 0.00 41 1012.8
20260901185339 95 77 4.0 7.0 0.00 0.00 0.00 42 1013.0
20260901184329 94 172 3.0 5.0 0.00 0.00 0.00 42 1013.0
20260901183334 94 120 4.0 8.0 0.00 0.00 0.00 43 1013.1
20260901182342 94 85 2.0 6.0 0.00 0.00 0.00 43 1013.3
20260901181329 93 108 4.0 7.0 0.00 0.00 0.00 45 1013.3
20260901180341 92 219 4.0 7.0 0.00 0.00 0.00 45 1013.4
20260901175327 92 19 1.0 8.0 0.00 0.00 0.00 46 1013.5
20260901174333 92 167 1.0 5.0 0.00 0.00 0.00 46 1013.6
20260901173359 91 140 3.0 8.0 0.00 0.00 0.00 47 1013.7
20260901172344 91 204 3.0 7.0 0.00 0.00 0.00 47 1013.8
20260901171355 91 53 2.0 6.0 0.00 0.00 0.00 47 1013.9
20260901170340 90 169 3.0 7.0 0.00 0.00 0.00 49 1013.8
20260901165328 89 160 3.0 9.0 0.00 0.00 0.00 50 1013.7
20260901164356 89 175 3.0 8.0 0.00 0.00 0.00 50 1013.7
20260901163341 89 151 3.0 7.0 0.00 0.00 0.00 50 1013.7
20260901162333 88 148 2.0 8.0 0.00 0.00 0.00 52 1013.5
20260901161339 88 101 4.0 10.0 0.00 0.00 0.00 51 1013.5
20260901160345 87 109 2.0 8.0 0.00 0.00 0.00 51 1013.4
20260901155330 87 128 3.0 7.0 0.00 0.08 0.00 52 1013.4
20260901154341 86 78 2.0 8.0 0.00 0.08 0.00 53 1013.3
20260901153328 86 119 2.0 8.0 0.00 0.08 0.00 53 1013.3
20260901152336 85 88 3.0 7.0 0.00 0.08 0.00 55 1013.3
20260901151327 84 58 2.0 8.0 0.00 0.08 0.00 56 1013.1
20260901150333 84 58 4.0 9.0 0.00 0.08 0.00 56 1013.1
20260901145359 83 113 2.0 8.0 0.00 0.21 0.00 57 1013.1
20260901144344 83 67 2.0 5.0 0.00 0.21 0.00 58 1013.1
20260901143331 82 104 1.0 4.0 0.00 0.21 0.00 61 1013.0
20260901142343 81 53 0.0 3.0 0.00 0.21 0.00 64 1013.1
20260901141330 80 110 1.0 3.0 0.00 0.21 0.00 66 1013.1
20260901140337 79 84 0.0 1.0 0.00 0.21 0.00 68 1013.1
20260901135404 78 101 0.0 2.0 0.00 0.22 0.00 69 1013.0
20260901134333 78 67 0.0 1.0 0.00 0.22 0.00 69 1012.9
20260901133339 78 67 0.0 0.0 0.00 0.22 0.00 69 1012.9
20260901132327 78 67 0.0 0.0 0.00 0.22 0.00 69 1012.7
20260901131354 78 67 0.0 1.0 0.00 0.22 0.00 69 1012.6
20260901130344 78 65 0.0 1.0 0.00 0.22 0.00 69 1012.4
20260901125331 78 95 0.0 0.0 0.00 0.22 0.00 68 1012.5
20260901124337 78 95 0.0 0.0 0.00 0.22 0.00 67 1012.5
20260901123345 78 95 0.0 0.0 0.00 0.22 0.00 66 1012.4
20260901122356 78 95 0.0 0.0 0.00 0.22 0.00 65 1012.4
20260901121341 79 95 0.0 1.0 0.00 0.22 0.00 65 1012.3
20260901120345 79 80 0.0 0.0 0.00 0.22 0.00 64 1012.2
20260901115331 79 80 0.0 1.0 0.00 0.22 0.00 64 1012.1
20260901114341 79 74 0.0 1.0 0.00 0.22 0.00 63 1012.1
20260901113327 79 76 0.0 1.0 0.00 0.22 0.00 63 1012.1
20260901112334 79 80 1.0 4.0 0.00 0.22 0.00 63 1011.9
20260901111400 79 66 1.0 4.0 0.00 0.22 0.00 64 1012.0
20260901110331 79 67 0.0 3.0 0.00 0.22 0.00 65 1011.9
20260901105338 79 66 1.0 4.0 0.00 0.22 0.00 65 1011.9
20260901104345 79 45 0.0 0.0 0.00 0.22 0.00 67 1011.9
20260901103351 79 67 0.0 0.0 0.00 0.22 0.00 67 1011.9
20260901102336 79 84 0.0 2.0 0.00 0.22 0.00 67 1012.0
20260901101405 79 78 0.0 0.0 0.00 0.22 0.00 66 1012.0
20260901100331 79 67 0.0 1.0 0.00 0.22 0.00 66 1012.0
20260901095337 79 75 0.0 2.0 0.00 0.22 0.00 66 1012.0
20260901094345 79 90 0.0 3.0 0.00 0.22 0.00 66 1012.0
20260901093335 79 102 0.0 2.0 0.00 0.22 0.00 66 1012.1
20260901092342 80 59 0.0 2.0 0.00 0.22 0.00 65 1012.1
20260901091331 80 65 1.0 2.0 0.00 0.22 0.00 65 1012.0
20260901090338 80 99 0.0 2.0 0.00 0.22 0.00 64 1012.1
20260901085328 80 61 0.0 1.0 0.00 0.22 0.00 64 1012.2
20260901084334 80 56 0.0 0.0 0.00 0.22 0.00 63 1012.2
20260901083340 80 55 0.0 0.0 0.00 0.22 0.00 62 1012.2
20260901082329 81 46 0.0 2.0 0.00 0.22 0.00 62 1012.2
20260901081335 81 67 0.0 3.0 0.00 0.22 0.00 62 1012.2
20260901080342 81 61 1.0 3.0 0.00 0.22 0.00 61 1012.2
20260901075329 81 88 1.0 2.0 0.00 0.22 0.00 60 1012.2
20260901074341 81 80 0.0 1.0 0.00 0.22 0.00 59 1012.3
20260901073327 82 57 0.0 3.0 0.00 0.22 0.00 58 1012.2
20260901072333 82 46 1.0 3.0 0.00 0.22 0.00 57 1012.1
20260901071341 82 70 0.0 3.0 0.00 0.22 0.00 56 1012.0
20260901070332 83 54 0.0 2.0 0.00 0.22 0.00 56 1012.0
20260901065340 83 21 0.0 1.0 0.00 0.23 0.22 56 1011.9
20260901064326 83 38 0.0 2.0 0.00 0.23 0.22 55 1011.9
20260901063333 83 97 1.0 3.0 0.00 0.23 0.22 55 1011.8
20260901062343 83 116 0.0 4.0 0.00 0.23 0.22 55 1011.8
20260901061331 83 153 2.0 4.0 0.00 0.23 0.22 54 1011.7
20260901060338 83 128 0.0 3.0 0.00 0.23 0.22 53 1011.6
20260901055344 84 101 0.0 3.0 0.00 0.25 0.22 53 1011.5
20260901054335 84 159 1.0 6.0 0.00 0.25 0.22 53 1011.6
20260901053402 84 97 2.0 5.0 0.00 0.25 0.22 53 1011.6
20260901052347 84 171 1.0 4.0 0.00 0.25 0.22 53 1011.6
20260901051335 84 146 3.0 7.0 0.00 0.25 0.22 52 1011.6
20260901050326 84 134 2.0 9.0 0.00 0.25 0.22 52 1011.6
20260901045333 84 136 2.0 6.0 0.00 0.26 0.22 51 1011.5
20260901044340 84 107 3.0 6.0 0.00 0.26 0.22 50 1011.5
20260901043328 85 143 1.0 4.0 0.00 0.26 0.22 51 1011.5
20260901042338 85 151 4.0 9.0 0.00 0.26 0.22 50 1011.4
20260901041326 85 147 3.0 5.0 0.00 0.26 0.22 50 1011.3
20260901040353 85 140 3.0 5.0 0.00 0.26 0.22 49 1011.3
20260901035339 86 196 3.0 5.0 0.00 0.26 0.22 49 1011.3
20260901034329 86 204 1.0 7.0 0.00 0.26 0.22 48 1011.3
20260901033336 86 146 1.0 5.0 0.00 0.26 0.22 47 1011.1
20260901032344 86 186 2.0 5.0 0.00 0.26 0.22 46 1011.1
20260901031328 86 173 1.0 5.0 0.00 0.26 0.22 46 1010.8
20260901030339 86 182 3.0 7.0 0.00 0.26 0.22 46 1010.7
20260901025325 86 165 3.0 6.0 0.00 0.26 0.22 46 1010.5
20260901024333 86 185 3.0 5.0 0.00 0.26 0.22 46 1010.4